Flag for France Weather past 2 weeks in Bordeaux, France

Now
77 °F

Mostly cloudy.


Feels Like: 79 °F
Forecast: 60 / 84 °F
Wind: 6 mph from Northwest

Location: Bordeaux / Merignac

Current Time: Jul 30, 2014 at 5:44:57 PM

Latest Report: Jul 30, 2014 at 5:00 PM


Visibility: N/A

Pressure: 30.04 "Hg

Humidity: 57%

Dew point: 61 °F

Location of BordeauxLocation

Historic Weather in Bordeaux — Graph

°F

Bordeaux temperature yesterday

Maximum temperature yesterday: 75 °F (at 3:00 PM)
Minimum temperature yesterday: 55 °F (at 6:30 AM)
Average temperature yesterday: 66 °F

Past Weeks' High & Low Weather Summary

 TemperatureHumidityPressure
High95 °F (Jul 17, 5:00 PM)100% (Jul 19, 4:30 AM)30.18 "Hg (Jul 19, 4:30 AM)
Low55 °F (Jul 29, 6:30 AM)32% (Jul 17, 3:30 PM)29.71 "Hg (Jul 18, 11:00 PM)
Average72 °F74%30.00 "Hg
* Reported Jul 15 4:00 PM — Jul 30 4:30 PM, Bordeaux, Weather by CustomWeather, © 2014

Note: Actual official high and low records may vary slightly from our data, if they occured in-between our weather recording intervals... More about our weather records

Advertising

Bordeaux weather history for previous 24 hours

 ConditionsComfort  
Time TempWeatherWind HumidityBarometerVisibility
4:30 PM
Jul 30
77 °FOvercast.7 mph57%30.04 "HgN/A
4:00 PM77 °FPartly sunny.6 mph57%30.04 "HgN/A
3:30 PM77 °FBroken clouds.6 mph57%30.04 "HgN/A
3:00 PM77 °FBroken clouds.6 mph57%30.04 "HgN/A
2:30 PM77 °FBroken clouds.6 mph57%30.04 "HgN/A
2:00 PM75 °FPartly sunny.7 mph61%30.04 "HgN/A
1:30 PM77 °FBroken clouds.6 mph61%30.04 "HgN/A
1:00 PM75 °FBroken clouds.6 mph61%30.04 "HgN/A
12:30 PM75 °FPartly sunny.5 mph57%30.04 "HgN/A
12:00 PM75 °FPartly sunny.5 mph61%30.04 "HgN/A
11:30 AM75 °FBroken clouds.5 mph65%30.04 "HgN/A
11:00 AM73 °FPartly sunny.5 mph74%30.04 "HgN/A
10:30 AM72 °FPartly sunny.6 mph78%30.04 "HgN/A
10:00 AM70 °FMore clouds than sun.7 mph83%30.04 "HgN/A
9:30 AM70 °FClear.6 mph83%30.04 "HgN/A
9:00 AM68 °FClear.3 mph88%30.04 "HgN/A
8:30 AM66 °FClear.3 mph88%30.04 "HgN/A
8:00 AM66 °FClear.3 mph88%30.04 "HgN/A
7:30 AM64 °FClear.5 mph94%30.04 "HgN/A
7:00 AM64 °FClear.5 mph94%30.04 "HgN/A
6:30 AM64 °FClear.3 mph88%30.04 "HgN/A
6:00 AM66 °FClear.3 mph88%30.04 "HgN/A
5:30 AM66 °FClear.5 mph83%30.04 "HgN/A
5:00 AM66 °FClear.3 mph83%30.04 "HgN/A
4:30 AM66 °FClear.5 mph83%30.04 "HgN/A
4:00 AM66 °FClear.5 mph83%30.04 "HgN/A
3:30 AM66 °FClear.5 mph83%30.04 "HgN/A
3:00 AM66 °FClear.5 mph83%30.07 "HgN/A
2:30 AM66 °FClear.5 mph83%30.07 "HgN/A
2:00 AM66 °FClear.5 mph83%30.07 "HgN/A
1:30 AM66 °FClear.5 mph78%30.07 "HgN/A
1:00 AM66 °FClear.5 mph78%30.07 "HgN/A
12:30 AM66 °FClear.6 mph78%30.07 "HgN/A
12:00 AM68 °FMostly cloudy.7 mph73%30.07 "HgN/A
11:30 PM
Jul 29
68 °FMostly cloudy.7 mph73%30.07 "HgN/A
11:00 PM68 °FClear.6 mph73%30.07 "HgN/A
10:30 PM68 °FClear.6 mph78%30.07 "HgN/A
10:00 PM68 °FClear.8 mph73%30.07 "HgN/A
9:30 PM70 °FMore clouds than sun.10 mph69%30.04 "HgN/A
9:00 PM70 °FClear.10 mph69%30.04 "HgN/A
8:30 PM70 °FMore clouds than sun.10 mph73%30.04 "HgN/A
8:00 PM70 °FBroken clouds.10 mph73%30.04 "HgN/A
7:30 PM70 °FBroken clouds.15 mph73%30.04 "HgN/A
7:00 PM70 °FOvercast.15 mph69%30.04 "HgN/A
6:30 PM70 °FClear.13 mph64%30.04 "HgN/A
6:00 PM70 °FOvercast.15 mph64%30.04 "HgN/A
5:30 PM72 °FPartly sunny.15 mph61%30.04 "HgN/A
5:00 PM73 °FBroken clouds.14 mph53%30.04 "HgN/A
Weather by CustomWeather, © 2014

See weather overviewHow to use our weather pages